Regional Weather Roundup
Issued by NWS

Home | Current Version | Previous Version | Graphics & Text | Print | Product List | Glossary On
Versions: 1 2 3 4 5 6 7 8 9 10 11 12 13 14 15 16 17 18 19 20 21 22 23 24 25 26 27 28 29 30 31 32 33 34 35 36 37 38 39 40 41 42 43 44 45 46 47 48 49
000
ASUS45 KCYS 291810
RWRWY

WYOMING REGIONAL WEATHER ROUNDUP
NATIONAL WEATHER SERVICE CHEYENNE WY
1200 PM MDT SUN MAR 29 2015

NOTE:  "FAIR" INDICATES FEW OR NO CLOUDS BELOW 12,000 FEET
WITH NO SIGNIFICANT WEATHER AND/OR OBSTRUCTIONS TO VISIBILITY.

WYZ001-291900-
YELLOWSTONE NATIONAL PARK

CITY           SKY/WX    TMP DP  RH WIND       PRES   REMARKS
LK YELLOWSTONE   N/A     36  17  46 VRB3      30.33F
6HR MIN TEMP:  16; 6HR MAX TEMP:  36;

W YELLOWSTONE  NOT AVBL

$$
WYZ002>013-054>058-071-098>099-291900-
NORTHERN WYOMING

CITY           SKY/WX    TMP DP  RH WIND       PRES   REMARKS
JACKSON        SUNNY     41  21  45 CALM      30.34F
CODY           FAIR      55  14  19 NW7       30.19S
GREYBULL       FAIR      56  20  24 SE13G21   30.20F
6HR MIN TEMP:  33; 6HR MAX TEMP:  56;

WORLAND        FAIR      56  19  23 S8G17     30.19F
6HR MIN TEMP:  31; 6HR MAX TEMP:  57;

SHERIDAN       FAIR      55  23  28 N5        30.19F
6HR MIN TEMP:  33; 6HR MAX TEMP:  56;

BUFFALO          N/A     54  25  32 MISG      30.18F
6HR MIN TEMP:  38; 6HR MAX TEMP:  54;

GILLETTE       FAIR      53  25  33 W15G23    30.20F
6HR MIN TEMP:  33; 6HR MAX TEMP:  54;

HULETT         FAIR      52  28  40 NW13G21   30.19F
NEWCASTLE      FAIR      52  25  35 NW18G24   30.23S

$$
WYZ014>020-022>026-101>103-291900-
CENTRAL WYOMING

CITY           SKY/WX    TMP DP  RH WIND       PRES   REMARKS
BIG PINEY      FAIR      47  11  23 S6        30.34F
6HR MIN TEMP:  17; 6HR MAX TEMP:  47;

PINEDALE       FAIR      45  14  29 W9        30.35S
DUBOIS         FAIR      48  -4  11 NW15G25   30.25F
LANDER         FAIR      52  17  25 VRB3      30.21F
6HR MIN TEMP:  33; 6HR MAX TEMP:  53;

RIVERTON       FAIR      52  16  24 VRB7      30.24F
6HR MIN TEMP:  31; 6HR MAX TEMP:  53;

CASPER         FAIR      54  18  24 W17G26    30.24F
6HR MIN TEMP:  23; 6HR MAX TEMP:  56;

DOUGLAS        FAIR      55  23  28 NW12G20   30.25F
6HR MIN TEMP:  37; 6HR MAX TEMP:  55;


$$
WYZ021-027>030-104>119-291900-
SOUTHERN WYOMING

CITY           SKY/WX    TMP DP  RH WIND       PRES   REMARKS
EVANSTON       FAIR      51  13  21 W8        30.35F
6HR MIN TEMP:  30; 6HR MAX TEMP:  51;

KEMMERER       FAIR      50  14  23 CALM      30.35F
FORT BRIDGER   FAIR      53  11  19 NW5       30.37F
ROCK SPRINGS   FAIR      49  18  29 W7        30.33F
6HR MIN TEMP:  29; 6HR MAX TEMP:  49;

DIXON          FAIR      54  20  26 SW7       30.36F
RAWLINS        FAIR      53  11  18 SW16      30.31F
6HR MIN TEMP:  22; 6HR MAX TEMP:  53;

SARATOGA       FAIR      52  16  24 SW5       30.32F
LARAMIE        FAIR      49  15  25 VRB7      30.29F
6HR MIN TEMP:  24; 6HR MAX TEMP:  49;

CHEYENNE       FAIR      53  16  23 N9G20     30.27F
6HR MIN TEMP:  37; 6HR MAX TEMP:  53;

TORRINGTON     FAIR      56  22  26 NW12G21   30.25F
6HR MIN TEMP:  42; 6HR MAX TEMP:  57;

PINE BLUFFS    FAIR      52  21  30 N13G28    30.29F

$$



USA.gov is the U.S. government's official web portal to all federal, state and local government web resources and services.